Regional Weather Roundup
Issued by NWS

Home | Current Version | Previous Version | Text Only | Print | Product List | Glossary On
Versions: 1 2 3 4 5 6 7 8 9 10 11 12 13 14 15 16 17 18 19 20 21 22 23 24 25 26 27 28 29 30 31 32 33 34 35 36 37 38 39 40 41 42 43 44 45 46 47 48 49 50
254
ASUS42 KKEY 230510
RWRKEY

FLORIDA REGIONAL WEATHER ROUNDUP FOR THE FLORIDA KEYS
NATIONAL WEATHER SERVICE KEY WEST FLORIDA
1200 AM EST THU FEB 23 2017

...SOUTH FLORIDA AND THE KEYS...

CITY           SKY/WX    TMP DP  RH WIND       PRES   REMARKS
FORT MYERS     CLOUDY    63  60  90 CALM      29.65F
SW REGIONAL AP MOCLDY    61  57  87 CALM      29.66S
NAPLES         CLEAR     68  61  78 W6        29.66F
MIAMI          MOCLDY    66  62  87 SW5       29.66F
WEST KENDALL   CLOUDY    65  61  87 S5        29.66F
HOMESTEAD      CLOUDY    64  64  99 SW5       29.66F
MARATHON       PTCLDY    70  60  70 W9        29.68F
BOCA CHICA NAS CLEAR     68  58  70 W10       29.70S
KEY WEST INTL  CLEAR     70  59  68 NW9       29.70S

...INTERNATIONAL WEATHER...

CITY           SKY/WX    TMP DP  RH WIND       PRES   REMARKS
NASSAU BAHAMAS LGT RAIN  73  63  68 SE13      29.72F
CANCUN MEXICO  CLEAR     66  57  72 SW5       29.86F
COZUMEL MEXICO PTCLDY    75  61  60 NW15      29.85F

ADJACENT COASTAL WATERS...

STATION/POSITION TIME  SKY/WX   TEMP    WIND        PRES    WAVE
                                AIR SEA DIR/SP/G            HT/PER
                 (UTC)          (F)     (DEG/KT/KT) (MB)    (FT/S)
PULASKI SHOAL LI 0500            71     300/ 12/ 13 1005.8F
SAND KEY         0450            71                 1006.3S
LONG KEY         0500            70 73  290/ 11/ 13 1005.2F
MOLASSES REEF    0500            70 75  330/ 11/ 13 1005.1F
FOWEY ROCKS      0500            68 74  260/ 11/ 11 1005.0F
Buoy 42097       0430                                 N/A     5/ 7

$$




USA.gov is the U.S. government's official web portal to all federal, state and local government web resources and services.